,,,PA_Meas_PMT16A,,PR_Meas_QMR101_102,,RH_Meas_QMH101,,SR_Meas_QMS101,,TA_Meas_QMH101,,GenWind,,GenWind,
date,time,status,PA,status,PR,status,RH,status,SR,status,TA,status,DirAvg,status,SpdAvg,
2011-02-23, 00:00:05,VALID,1000.88,VALID,0,VALID,88.0992,VALID,0,VALID,24.072,VALID,97,VALID,0.2125,
2011-02-23, 00:01:05,VALID,1000.88,VALID,0,VALID,87.8474,VALID,0,VALID,24.072,VALID,97,VALID,0.376172,
2011-02-23, 00:02:05,VALID,1000.84,VALID,0,VALID,87.7101,VALID,0.112286,VALID,24.0915,VALID,97,VALID,0.502344,
2011-02-23, 00:03:05,VALID,1000.87,VALID,0,VALID,87.5651,VALID,0.112286,VALID,24.1305,VALID,97,VALID,0.887891,
2011-02-23, 00:04:05,VALID,1000.83,VALID,0,VALID,87.5194,VALID,0,VALID,24.1696,VALID,97,VALID,0.640625,
2011-02-23, 00:05:05,VALID,1000.86,VALID,0,VALID,87.6491,VALID,0,VALID,24.1891,VALID,93,VALID,0.681641,
2011-02-23, 00:06:05,VALID,1000.8,VALID,0,VALID,87.9619,VALID,0,VALID,24.1696,VALID,62,VALID,0.840625,
2011-02-23, 00:07:05,VALID,1000.81,VALID,0,VALID,88,VALID,0,VALID,24.15,VALID,57,VALID,0.872266,
2011-02-23, 00:08:05,VALID,1000.81,VALID,0,VALID,88.1984,VALID,0,VALID,24.1305,VALID,57,VALID,0.278906,
2011-02-23, 00:09:05,VALID,1000.82,VALID,0,VALID,88.412,VALID,0,VALID,24.1305,VALID,57,VALID,0.412109,
2011-02-23, 00:10:05,VALID,1000.79,VALID,0,VALID,88.6257,VALID,0,VALID,24.111,VALID,57,VALID,0.402734,
2011-02-23, 00:11:05,VALID,1000.84,VALID,0,VALID,88.8393,VALID,0,VALID,24.0915,VALID,57,VALID,0.21875,
2011-02-23, 00:12:05,VALID,1000.8,VALID,0,VALID,88.9461,VALID,0,VALID,24.072,VALID,51,VALID,0.618359,
2011-02-23, 00:13:05,VALID,1000.84,VALID,0,VALID,89.0148,VALID,0,VALID,24.072,VALID,43,VALID,0.416016,
2011-02-23, 00:14:05,VALID,1000.86,VALID,0,VALID,89.0453,VALID,0,VALID,24.0525,VALID,43,VALID,0.469531,
2011-02-23, 00:15:05,VALID,1000.86,VALID,0,VALID,89.03,VALID,0,VALID,24.0311,VALID,43,VALID,0.236328,
2011-02-23, 00:16:05,VALID,1000.88,VALID,0,VALID,89.114,VALID,0,VALID,24.0525,VALID,43,VALID,0.389062,
2011-02-23, 00:17:05,VALID,1000.9,VALID,0,VALID,89.0758,VALID,0,VALID,24.0329,VALID,43,VALID,0.577734,
2011-02-23, 00:18:05,VALID,1000.88,VALID,0,VALID,89.0453,VALID,0,VALID,24.0329,VALID,43,VALID,0.582812,
2011-02-23, 00:19:05,VALID,1000.87,VALID,0,VALID,88.9843,VALID,0,VALID,24.0134,VALID,46,VALID,0.586719,
2011-02-23, 00:20:05,VALID,1000.86,VALID,0,VALID,88.9232,VALID,0,VALID,24.0134,VALID,49,VALID,0.475781,
2011-02-23, 00:21:05,VALID,1000.87,VALID,0,VALID,88.9003,VALID,0,VALID,24.0116,VALID,49,VALID,0.335156,
2011-02-23, 00:22:05,VALID,1000.85,VALID,0,VALID,88.9614,VALID,0,VALID,24.0134,VALID,49,VALID,0.412109,
2011-02-23, 00:23:05,VALID,1000.83,VALID,0,VALID,89.0606,VALID,0,VALID,24.0134,VALID,49,VALID,0.333203,
2011-02-23, 00:24:05,VALID,1000.8,VALID,0,VALID,89.1368,VALID,0,VALID,23.9921,VALID,49,VALID,0.2,
2011-02-23, 00:25:05,VALID,1000.82,VALID,0,VALID,89.236,VALID,0,VALID,23.9939,VALID,49,VALID,0.209766,
2011-02-23, 00:26:05,VALID,1000.8,VALID,0,VALID,89.2742,VALID,0,VALID,23.9744,VALID,49,VALID,0.090625,
2011-02-23, 00:27:05,VALID,1000.78,VALID,0,VALID,89.3352,VALID,0,VALID,23.9531,VALID,49,VALID,0,
2011-02-23, 00:28:05,VALID,1000.78,VALID,0,VALID,89.4039,VALID,0.112286,VALID,23.9336,VALID,49,VALID,0,
2011-02-23, 00:29:05,VALID,1000.77,VALID,0,VALID,89.4649,VALID,0,VALID,23.9336,VALID,49,VALID,0.0988281,
2011-02-23, 00:30:05,VALID,1000.76,VALID,0,VALID,89.5412,VALID,0,VALID,23.9354,VALID,49,VALID,0.235547,
2011-02-23, 00:31:05,VALID,1000.75,VALID,0,VALID,89.6099,VALID,0,VALID,23.914,VALID,49,VALID,0.185156,
2011-02-23, 00:32:05,VALID,1000.72,VALID,0,VALID,89.6786,VALID,0,VALID,23.9354,VALID,49,VALID,0.00742187,
2011-02-23, 00:33:05,VALID,1000.69,VALID,0,VALID,89.7091,VALID,0,VALID,23.9354,VALID,49,VALID,0,
2011-02-23, 00:34:05,VALID,1000.68,VALID,0,VALID,89.7625,VALID,0,VALID,23.9354,VALID,49,VALID,0,
2011-02-23, 00:35:05,VALID,1000.63,VALID,0,VALID,89.7549,VALID,0,VALID,23.9549,VALID,49,VALID,0,
2011-02-23, 00:36:05,VALID,1000.63,VALID,0,VALID,89.7396,VALID,0,VALID,23.9549,VALID,49,VALID,0,
2011-02-23, 00:37:05,VALID,1000.61,VALID,0,VALID,89.7243,VALID,0,VALID,23.9744,VALID,49,VALID,0,
2011-02-23, 00:38:05,VALID,1000.56,VALID,0,VALID,89.7472,VALID,0,VALID,23.9336,VALID,49,VALID,0,
2011-02-23, 00:39:05,VALID,1000.57,VALID,0,VALID,89.7396,VALID,0.112286,VALID,23.9531,VALID,49,VALID,0,
2011-02-23, 00:40:05,VALID,1000.52,VALID,0,VALID,89.7243,VALID,0,VALID,23.9744,VALID,49,VALID,0,
2011-02-23, 00:41:05,VALID,1000.49,VALID,0,VALID,89.7167,VALID,0,VALID,23.9336,VALID,49,VALID,0,
2011-02-23, 00:42:05,VALID,1000.47,VALID,0,VALID,89.7014,VALID,0,VALID,23.9549,VALID,49,VALID,0.207813,
2011-02-23, 00:43:05,VALID,1000.48,VALID,0,VALID,89.732,VALID,0,VALID,23.9744,VALID,49,VALID,0,
2011-02-23, 00:44:05,VALID,1000.46,VALID,0,VALID,89.7167,VALID,0,VALID,23.9744,VALID,49,VALID,0,
2011-02-23, 00:45:05,VALID,1000.43,VALID,0,VALID,89.7014,VALID,0,VALID,23.9531,VALID,49,VALID,0.146875,
2011-02-23, 00:46:05,VALID,1000.43,VALID,0,VALID,89.8846,VALID,0,VALID,23.9726,VALID,49,VALID,0.310156,
2011-02-23, 00:47:05,VALID,1000.42,VALID,0,VALID,89.854,VALID,0,VALID,23.9549,VALID,49,VALID,0.621875,
2011-02-23, 00:48:05,VALID,1000.42,VALID,0,VALID,89.854,VALID,0,VALID,23.9336,VALID,1,VALID,0.701953,
2011-02-23, 00:49:05,VALID,1000.41,VALID,0,VALID,89.938,VALID,0,VALID,23.9354,VALID,1,VALID,0.527344,
2011-02-23, 00:50:05,VALID,1000.4,VALID,0,VALID,90.0219,VALID,0,VALID,23.9762,VALID,1,VALID,0.376563,
2011-02-23, 00:51:05,VALID,1000.37,VALID,0,VALID,90.0829,VALID,0,VALID,23.9354,VALID,1,VALID,0.364844,
2011-02-23, 00:52:05,VALID,1000.36,VALID,0,VALID,90.1058,VALID,0,VALID,23.9159,VALID,1,VALID,0.215234,
2011-02-23, 00:53:04,VALID,1000.33,VALID,0,VALID,90.1897,VALID,0,VALID,23.9372,VALID,1,VALID,0.278906,
2011-02-23, 00:54:04,VALID,1000.31,VALID,0,VALID,90.2508,VALID,0,VALID,23.9159,VALID,1,VALID,0.417969,
2011-02-23, 00:55:04,VALID,1000.29,VALID,0,VALID,90.3576,VALID,0,VALID,23.9159,VALID,1,VALID,0.514063,
2011-02-23, 00:56:04,VALID,1000.27,VALID,0,VALID,90.4568,VALID,0,VALID,23.8963,VALID,1,VALID,0.582422,
2011-02-23, 00:57:04,VALID,1000.24,VALID,0,VALID,90.4873,VALID,0,VALID,23.8963,VALID,54,VALID,0.797266,
2011-02-23, 00:58:04,VALID,1000.25,VALID,0,VALID,90.5331,VALID,0,VALID,23.9159,VALID,60,VALID,0.915234,
2011-02-23, 00:59:04,VALID,1000.23,VALID,0,VALID,90.5178,VALID,0,VALID,23.9354,VALID,72,VALID,0.912891,
2011-02-23, 01:00:04,VALID,1000.26,VALID,0,VALID,90.3652,VALID,0,VALID,23.9159,VALID,72,VALID,0.634375,
2011-02-23, 01:01:04,VALID,1000.23,VALID,0,VALID,90.2126,VALID,0,VALID,23.9354,VALID,72,VALID,0.241016,
2011-02-23, 01:02:04,VALID,1000.2,VALID,0,VALID,90.1134,VALID,0,VALID,23.9159,VALID,51,VALID,0.545313,
2011-02-23, 01:03:04,VALID,1000.21,VALID,0,VALID,90.0753,VALID,0,VALID,23.9159,VALID,46,VALID,0.832031,
2011-02-23, 01:04:04,VALID,1000.18,VALID,0,VALID,90.1897,VALID,0,VALID,23.9159,VALID,62,VALID,1.35664,
2011-02-23, 01:05:04,VALID,1000.12,VALID,0,VALID,90.2584,VALID,0,VALID,23.8963,VALID,69,VALID,1.24336,
2011-02-23, 01:06:04,VALID,1000.13,VALID,0,VALID,90.2889,VALID,0,VALID,23.9177,VALID,55,VALID,1.13203,
2011-02-23, 01:07:04,VALID,1000.16,VALID,0,VALID,90.2966,VALID,0,VALID,23.8573,VALID,9,VALID,0.602734,
2011-02-23, 01:08:04,VALID,1000.14,VALID,0,VALID,90.3576,VALID,0,VALID,23.8573,VALID,340,VALID,0.65625,
2011-02-23, 01:09:04,VALID,1000.12,VALID,0,VALID,90.4034,VALID,0,VALID,23.8573,VALID,22,VALID,0.944141,
2011-02-23, 01:10:04,VALID,1000.09,VALID,0,VALID,90.3652,VALID,0,VALID,23.8378,VALID,31,VALID,0.803125,
2011-02-23, 01:11:04,VALID,1000.09,VALID,0,VALID,90.3805,VALID,0,VALID,23.8165,VALID,31,VALID,0.427344,
2011-02-23, 01:12:04,VALID,1000.07,VALID,0,VALID,90.3576,VALID,0,VALID,23.8378,VALID,31,VALID,0.0914062,
2011-02-23, 01:13:04,VALID,1000.05,VALID,0,VALID,90.3423,VALID,0,VALID,23.8183,VALID,31,VALID,0,
2011-02-23, 01:14:04,VALID,1000.07,VALID,0,VALID,90.3728,VALID,0,VALID,23.8183,VALID,31,VALID,0,
2011-02-23, 01:15:04,VALID,1000.04,VALID,0,VALID,90.3728,VALID,0,VALID,23.8183,VALID,31,VALID,0,
2011-02-23, 01:16:04,VALID,1000.03,VALID,0,VALID,90.411,VALID,0,VALID,23.7988,VALID,31,VALID,0.0824219,
2011-02-23, 01:17:04,VALID,1000.01,VALID,0,VALID,90.411,VALID,0,VALID,23.7988,VALID,31,VALID,0,
2011-02-23, 01:18:04,VALID,1000.01,VALID,0,VALID,90.4339,VALID,0,VALID,23.7988,VALID,31,VALID,0.198047,
2011-02-23, 01:19:04,VALID,1000.01,VALID,0,VALID,90.4568,VALID,0,VALID,23.7988,VALID,31,VALID,0.418359,
2011-02-23, 01:20:04,VALID,1000.01,VALID,0,VALID,90.4644,VALID,0,VALID,23.7775,VALID,31,VALID,0.510547,
2011-02-23, 01:21:04,VALID,1000.03,VALID,0,VALID,90.4949,VALID,0,VALID,23.7988,VALID,31,VALID,0.520703,
2011-02-23, 01:22:04,VALID,1000.04,VALID,0,VALID,90.472,VALID,0,VALID,23.7988,VALID,31,VALID,0.670703,
2011-02-23, 01:23:04,VALID,1000.04,VALID,0,VALID,90.5026,VALID,0,VALID,23.7793,VALID,31,VALID,0.782422,
2011-02-23, 01:24:04,VALID,1000.05,VALID,0,VALID,90.4949,VALID,0,VALID,23.7988,VALID,44,VALID,0.949219,
2011-02-23, 01:25:04,VALID,1000.01,VALID,0,VALID,90.472,VALID,0,VALID,23.8183,VALID,60,VALID,1.10234,
2011-02-23, 01:26:04,VALID,999.996,VALID,0,VALID,90.411,VALID,0,VALID,23.8183,VALID,60,VALID,1.0707,
2011-02-23, 01:27:04,VALID,1000.01,VALID,0,VALID,90.3805,VALID,0,VALID,23.8378,VALID,60,VALID,0.99375,
2011-02-23, 01:28:04,VALID,999.984,VALID,0,VALID,90.3347,VALID,0,VALID,23.8378,VALID,54,VALID,0.885938,
2011-02-23, 01:29:04,VALID,999.982,VALID,0,VALID,90.2889,VALID,0,VALID,23.8378,VALID,45,VALID,0.875391,
2011-02-23, 01:30:04,VALID,999.946,VALID,0,VALID,90.2584,VALID,0,VALID,23.8378,VALID,41,VALID,0.830469,
2011-02-23, 01:31:04,VALID,999.921,VALID,0,VALID,90.205,VALID,0,VALID,23.8183,VALID,35,VALID,0.623828,
2011-02-23, 01:32:04,VALID,999.903,VALID,0,VALID,90.2584,VALID,0,VALID,23.7988,VALID,16,VALID,0.705859,
2011-02-23, 01:33:04,VALID,999.876,VALID,0,VALID,90.3423,VALID,0,VALID,23.797,VALID,12,VALID,0.64375,
2011-02-23, 01:34:04,VALID,999.858,VALID,0,VALID,90.411,VALID,0,VALID,23.7988,VALID,8,VALID,0.603906,
2011-02-23, 01:35:04,VALID,999.827,VALID,0,VALID,90.4797,VALID,0,VALID,23.7988,VALID,5,VALID,0.750781,
2011-02-23, 01:36:04,VALID,999.809,VALID,0,VALID,90.4949,VALID,0,VALID,23.7988,VALID,356,VALID,0.711719,
2011-02-23, 01:37:04,VALID,999.754,VALID,0,VALID,90.5102,VALID,0,VALID,23.8183,VALID,356,VALID,0.833984,
2011-02-23, 01:38:04,VALID,999.748,VALID,0,VALID,90.3881,VALID,0,VALID,23.7988,VALID,8,VALID,0.856641,
2011-02-23, 01:39:04,VALID,999.745,VALID,0,VALID,90.2813,VALID,0,VALID,23.7988,VALID,21,VALID,0.83125,
2011-02-23, 01:40:04,VALID,999.694,VALID,0,VALID,90.2126,VALID,0,VALID,23.7988,VALID,21,VALID,0.869531,
2011-02-23, 01:41:04,VALID,999.691,VALID,0,VALID,90.1974,VALID,0,VALID,23.8201,VALID,10,VALID,0.933984,
2011-02-23, 01:42:04,VALID,999.683,VALID,0,VALID,90.2584,VALID,0,VALID,23.7988,VALID,8,VALID,0.810938,
2011-02-23, 01:43:04,VALID,999.674,VALID,0,VALID,90.3042,VALID,0,VALID,23.8183,VALID,12,VALID,0.685938,
2011-02-23, 01:44:04,VALID,999.625,VALID,0,VALID,90.3194,VALID,0,VALID,23.8183,VALID,49,VALID,0.704297,
2011-02-23, 01:45:04,VALID,999.633,VALID,0,VALID,90.3728,VALID,0,VALID,23.8183,VALID,56,VALID,0.830859,
2011-02-23, 01:46:04,VALID,999.646,VALID,0,VALID,90.3347,VALID,0,VALID,23.8378,VALID,60,VALID,0.916797,
2011-02-23, 01:47:04,VALID,999.616,VALID,0,VALID,90.2508,VALID,0,VALID,23.8573,VALID,67,VALID,0.90625,
2011-02-23, 01:48:04,VALID,999.658,VALID,0,VALID,90.06,VALID,0,VALID,23.8378,VALID,68,VALID,0.648047,
2011-02-23, 01:49:04,VALID,999.626,VALID,0,VALID,89.9685,VALID,0,VALID,23.8555,VALID,85,VALID,0.858203,
2011-02-23, 01:50:04,VALID,999.568,VALID,0,VALID,89.9685,VALID,0,VALID,23.8768,VALID,88,VALID,1.06289,
2011-02-23, 01:51:04,VALID,999.524,VALID,0,VALID,89.854,VALID,0,VALID,23.8573,VALID,98,VALID,1.04062,
2011-02-23, 01:52:04,VALID,999.527,VALID,0,VALID,89.7625,VALID,0,VALID,23.8378,VALID,113,VALID,0.511328,
2011-02-23, 01:53:04,VALID,999.508,VALID,0,VALID,89.7777,VALID,0,VALID,23.8573,VALID,113,VALID,0.113672,
2011-02-23, 01:54:04,VALID,999.503,VALID,0,VALID,89.7854,VALID,0,VALID,23.8165,VALID,113,VALID,0.139844,
2011-02-23, 01:55:04,VALID,999.494,VALID,0,VALID,89.9303,VALID,0,VALID,23.8378,VALID,113,VALID,0.181641,
2011-02-23, 01:56:04,VALID,999.46,VALID,0,VALID,90.0524,VALID,0,VALID,23.8378,VALID,113,VALID,0.00742187,
2011-02-23, 01:57:04,VALID,999.441,VALID,0,VALID,90.1363,VALID,0,VALID,23.8165,VALID,113,VALID,0.0328125,
2011-02-23, 01:58:04,VALID,999.391,VALID,0,VALID,90.2126,VALID,0,VALID,23.7988,VALID,113,VALID,0.114844,
2011-02-23, 01:59:04,VALID,999.383,VALID,0,VALID,90.3194,VALID,0,VALID,23.8183,VALID,113,VALID,0.301953,
2011-02-23, 02:00:04,VALID,999.365,VALID,0,VALID,90.4263,VALID,0,VALID,23.7988,VALID,113,VALID,0.378125,
2011-02-23, 02:01:04,VALID,999.385,VALID,0,VALID,90.4568,VALID,0,VALID,23.8183,VALID,113,VALID,0.322266,
2011-02-23, 02:02:04,VALID,999.406,VALID,0,VALID,90.4415,VALID,0,VALID,23.7988,VALID,113,VALID,0,
2011-02-23, 02:03:04,VALID,999.345,VALID,0,VALID,90.35,VALID,0,VALID,23.7988,VALID,113,VALID,0.169922,
2011-02-23, 02:04:04,VALID,999.341,VALID,0,VALID,90.2508,VALID,0,VALID,23.8183,VALID,113,VALID,0.366016,
2011-02-23, 02:05:04,VALID,999.311,VALID,0,VALID,90.1363,VALID,0,VALID,23.8183,VALID,112,VALID,0.426172,
2011-02-23, 02:06:04,VALID,999.296,VALID,0,VALID,90.0219,VALID,0,VALID,23.8573,VALID,112,VALID,0.702344,
2011-02-23, 02:07:04,VALID,999.299,VALID,0,VALID,89.9837,VALID,0,VALID,23.8963,VALID,111,VALID,1.03359,
2011-02-23, 02:08:04,VALID,999.283,VALID,0,VALID,89.9074,VALID,0,VALID,23.9159,VALID,76,VALID,0.646484,
2011-02-23, 02:09:04,VALID,999.277,VALID,0,VALID,89.793,VALID,0,VALID,23.8945,VALID,69,VALID,0.379297,
2011-02-23, 02:10:04,VALID,999.326,VALID,0,VALID,89.7396,VALID,0,VALID,23.8768,VALID,69,VALID,0.247656,
2011-02-23, 02:11:04,VALID,999.3,VALID,0,VALID,89.8693,VALID,0,VALID,23.8963,VALID,69,VALID,0.587109,
2011-02-23, 02:12:04,VALID,999.288,VALID,0,VALID,89.9456,VALID,0,VALID,23.8768,VALID,69,VALID,0.234375,
2011-02-23, 02:13:04,VALID,999.299,VALID,0,VALID,89.9837,VALID,0,VALID,23.8768,VALID,69,VALID,0.219531,
2011-02-23, 02:14:04,VALID,999.281,VALID,0,VALID,90.0219,VALID,0,VALID,23.8573,VALID,69,VALID,0.217187,
2011-02-23, 02:15:04,VALID,999.234,VALID,0,VALID,90.0677,VALID,0,VALID,23.8573,VALID,69,VALID,0,
2011-02-23, 02:16:04,VALID,999.258,VALID,0,VALID,90.1516,VALID,0,VALID,23.836,VALID,69,VALID,0,
2011-02-23, 02:17:04,VALID,999.218,VALID,0,VALID,90.1821,VALID,0,VALID,23.8183,VALID,69,VALID,0,
2011-02-23, 02:18:04,VALID,999.208,VALID,0,VALID,90.1974,VALID,0,VALID,23.7775,VALID,69,VALID,0.366797,
2011-02-23, 02:19:04,VALID,999.214,VALID,0,VALID,90.1363,VALID,0,VALID,23.7597,VALID,69,VALID,0.535547,
2011-02-23, 02:20:04,VALID,999.228,VALID,0,VALID,90.06,VALID,0,VALID,23.7793,VALID,69,VALID,0.492578,
2011-02-23, 02:21:04,VALID,999.25,VALID,0,VALID,90.0371,VALID,0,VALID,23.8183,VALID,69,VALID,0.392188,
2011-02-23, 02:22:04,VALID,999.224,VALID,0,VALID,90.0143,VALID,0,VALID,23.8378,VALID,90,VALID,0.725391,
2011-02-23, 02:23:04,VALID,999.232,VALID,0,VALID,90.0143,VALID,0,VALID,23.8378,VALID,90,VALID,0.778906,
2011-02-23, 02:24:04,VALID,999.213,VALID,0,VALID,90.0371,VALID,0,VALID,23.8165,VALID,91,VALID,0.690234,
2011-02-23, 02:25:04,VALID,999.215,VALID,0,VALID,89.938,VALID,0,VALID,23.8573,VALID,91,VALID,0.695313,
2011-02-23, 02:26:04,VALID,999.224,VALID,0,VALID,89.8388,VALID,0,VALID,23.8573,VALID,91,VALID,0.526563,
2011-02-23, 02:27:04,VALID,999.271,VALID,0,VALID,89.7472,VALID,0,VALID,23.8573,VALID,91,VALID,0.230469,
2011-02-23, 02:28:04,VALID,999.256,VALID,0,VALID,89.6862,VALID,0,VALID,23.836,VALID,91,VALID,0.307422,
2011-02-23, 02:29:04,VALID,999.245,VALID,0,VALID,89.6328,VALID,0,VALID,23.836,VALID,91,VALID,0.357422,
2011-02-23, 02:30:04,VALID,999.201,VALID,0,VALID,89.6633,VALID,0,VALID,23.8555,VALID,360,VALID,0.387109,
2011-02-23, 02:31:04,VALID,999.214,VALID,0,VALID,89.7549,VALID,0,VALID,23.8573,VALID,360,VALID,0.214062,
2011-02-23, 02:32:04,VALID,999.211,VALID,0,VALID,89.8159,VALID,0,VALID,23.8573,VALID,360,VALID,0.0410156,
2011-02-23, 02:33:04,VALID,999.185,VALID,0,VALID,89.8922,VALID,0,VALID,23.836,VALID,360,VALID,0,
2011-02-23, 02:34:04,VALID,999.185,VALID,0,VALID,89.9761,VALID,0,VALID,23.8378,VALID,360,VALID,0.0867188,
2011-02-23, 02:35:04,VALID,999.197,VALID,0,VALID,90.0371,VALID,0,VALID,23.8378,VALID,360,VALID,0.228516,
2011-02-23, 02:36:04,VALID,999.193,VALID,0,VALID,90.0982,VALID,0,VALID,23.8183,VALID,360,VALID,0.315234,
2011-02-23, 02:37:04,VALID,999.186,VALID,0,VALID,90.1668,VALID,0,VALID,23.8183,VALID,360,VALID,0.588672,
2011-02-23, 02:38:04,VALID,999.214,VALID,0,VALID,90.205,VALID,0,VALID,23.7988,VALID,360,VALID,0.611719,
2011-02-23, 02:39:04,VALID,999.226,VALID,0,VALID,90.2966,VALID,0,VALID,23.7988,VALID,360,VALID,0.670313,
2011-02-23, 02:40:04,VALID,999.25,VALID,0,VALID,90.3728,VALID,0,VALID,23.7988,VALID,360,VALID,0.619141,
2011-02-23, 02:41:04,VALID,999.27,VALID,0,VALID,90.3805,VALID,0,VALID,23.7988,VALID,16,VALID,0.927344,
2011-02-23, 02:42:04,VALID,999.291,VALID,0,VALID,90.4034,VALID,0,VALID,23.7793,VALID,27,VALID,1.02578,
2011-02-23, 02:43:04,VALID,999.252,VALID,0,VALID,90.4339,VALID,0.112286,VALID,23.7579,VALID,39,VALID,1.11797,
2011-02-23, 02:44:04,VALID,999.265,VALID,0,VALID,90.4644,VALID,0,VALID,23.7579,VALID,55,VALID,1.18242,
2011-02-23, 02:45:04,VALID,999.259,VALID,0,VALID,90.5178,VALID,0,VALID,23.7988,VALID,65,VALID,1.0375,
2011-02-23, 02:46:04,VALID,999.304,VALID,0,VALID,90.6017,VALID,0,VALID,23.797,VALID,65,VALID,0.659766,
2011-02-23, 02:47:04,VALID,999.326,VALID,0,VALID,90.6399,VALID,0,VALID,23.797,VALID,42,VALID,0.482031,
2011-02-23, 02:48:04,VALID,999.346,VALID,0,VALID,90.6628,VALID,0,VALID,23.7775,VALID,22,VALID,0.616016,
2011-02-23, 02:49:04,VALID,999.342,VALID,0,VALID,90.678,VALID,0.112286,VALID,23.7793,VALID,356,VALID,0.714844,
2011-02-23, 02:50:04,VALID,999.304,VALID,0,VALID,90.7238,VALID,0.112286,VALID,23.7793,VALID,356,VALID,0.719922,
2011-02-23, 02:51:04,VALID,999.374,VALID,0,VALID,90.7696,VALID,0,VALID,23.797,VALID,352,VALID,0.626953,
2011-02-23, 02:52:04,VALID,999.365,VALID,0,VALID,90.762,VALID,0,VALID,23.7988,VALID,353,VALID,0.576172,
2011-02-23, 02:53:04,VALID,999.379,VALID,0,VALID,90.7849,VALID,0,VALID,23.8165,VALID,353,VALID,0.888281,
2011-02-23, 02:54:04,VALID,999.389,VALID,0,VALID,90.8001,VALID,0.112286,VALID,23.8165,VALID,354,VALID,0.891797,
2011-02-23, 02:55:04,VALID,999.366,VALID,0,VALID,90.7849,VALID,0.112286,VALID,23.797,VALID,9,VALID,0.919531,
2011-02-23, 02:56:04,VALID,999.373,VALID,0,VALID,90.7543,VALID,0,VALID,23.8183,VALID,16,VALID,0.9875,
2011-02-23, 02:57:04,VALID,999.423,VALID,0,VALID,90.6933,VALID,0,VALID,23.797,VALID,22,VALID,1.06992,
2011-02-23, 02:58:04,VALID,999.439,VALID,0,VALID,90.6017,VALID,0,VALID,23.797,VALID,22,VALID,0.948047,
2011-02-23, 02:59:04,VALID,999.444,VALID,0,VALID,90.5407,VALID,0,VALID,23.8183,VALID,22,VALID,1.05,
2011-02-23, 03:00:04,VALID,999.43,VALID,0,VALID,90.4873,VALID,0,VALID,23.797,VALID,22,VALID,0.852734,
2011-02-23, 03:01:04,VALID,999.433,VALID,0,VALID,90.4568,VALID,0,VALID,23.797,VALID,22,VALID,0.719922,
2011-02-23, 03:02:04,VALID,999.423,VALID,0,VALID,90.4034,VALID,0,VALID,23.7775,VALID,22,VALID,0.494141,
2011-02-23, 03:03:04,VALID,999.448,VALID,0,VALID,90.35,VALID,0,VALID,23.797,VALID,27,VALID,0.395703,
2011-02-23, 03:04:04,VALID,999.478,VALID,0,VALID,90.2355,VALID,0.112286,VALID,23.797,VALID,27,VALID,0.475,
2011-02-23, 03:05:04,VALID,999.47,VALID,0,VALID,90.1821,VALID,0.112286,VALID,23.797,VALID,27,VALID,0.478516,
2011-02-23, 03:06:04,VALID,999.451,VALID,0,VALID,90.1592,VALID,0,VALID,23.8165,VALID,27,VALID,0.340625,
2011-02-23, 03:07:04,VALID,999.462,VALID,0,VALID,90.0829,VALID,0.112286,VALID,23.8165,VALID,27,VALID,0.604297,
2011-02-23, 03:08:04,VALID,999.454,VALID,0,VALID,90.0448,VALID,0,VALID,23.797,VALID,27,VALID,0.485156,
2011-02-23, 03:09:04,VALID,999.427,VALID,0,VALID,89.999,VALID,0,VALID,23.797,VALID,27,VALID,0.696094,
2011-02-23, 03:10:04,VALID,999.413,VALID,0,VALID,89.9303,VALID,0,VALID,23.8183,VALID,27,VALID,0.597266,
2011-02-23, 03:11:04,VALID,999.409,VALID,0,VALID,89.8922,VALID,0,VALID,23.797,VALID,26,VALID,0.784766,
2011-02-23, 03:12:04,VALID,999.413,VALID,0,VALID,89.9609,VALID,0.112286,VALID,23.8165,VALID,25,VALID,0.660547,
2011-02-23, 03:13:04,VALID,999.399,VALID,0,VALID,89.9303,VALID,0,VALID,23.8378,VALID,25,VALID,0.208984,
2011-02-23, 03:14:04,VALID,999.383,VALID,0,VALID,89.9227,VALID,0,VALID,23.8378,VALID,25,VALID,0.509375,
2011-02-23, 03:15:04,VALID,999.375,VALID,0,VALID,89.938,VALID,0,VALID,23.836,VALID,25,VALID,0.489844,
2011-02-23, 03:16:04,VALID,999.385,VALID,0,VALID,89.9914,VALID,0,VALID,23.836,VALID,25,VALID,0.383984,
2011-02-23, 03:17:04,VALID,999.356,VALID,0,VALID,90.0143,VALID,0,VALID,23.836,VALID,25,VALID,0.246484,
2011-02-23, 03:18:04,VALID,999.316,VALID,0,VALID,89.9685,VALID,0,VALID,23.8555,VALID,25,VALID,0.379297,
2011-02-23, 03:19:04,VALID,999.309,VALID,0,VALID,89.793,VALID,0,VALID,23.836,VALID,25,VALID,0.397266,
2011-02-23, 03:20:04,VALID,999.313,VALID,0,VALID,89.6099,VALID,0,VALID,23.836,VALID,25,VALID,0.369141,
2011-02-23, 03:21:04,VALID,999.31,VALID,0,VALID,89.4802,VALID,0.112286,VALID,23.8555,VALID,25,VALID,0.407813,
2011-02-23, 03:22:04,VALID,999.309,VALID,0,VALID,89.4497,VALID,0,VALID,23.8768,VALID,25,VALID,0.455859,
2011-02-23, 03:23:04,VALID,999.329,VALID,0,VALID,89.3886,VALID,0,VALID,23.8768,VALID,25,VALID,0.529688,
2011-02-23, 03:24:04,VALID,999.31,VALID,0,VALID,89.2742,VALID,0,VALID,23.875,VALID,50,VALID,0.709766,
2011-02-23, 03:25:04,VALID,999.307,VALID,0,VALID,89.1445,VALID,0,VALID,23.9159,VALID,50,VALID,0.563281,
2011-02-23, 03:26:04,VALID,999.301,VALID,0,VALID,89.1521,VALID,0,VALID,23.9354,VALID,50,VALID,0.379687,
2011-02-23, 03:27:04,VALID,999.268,VALID,0,VALID,89.1368,VALID,0.112286,VALID,23.914,VALID,50,VALID,0.403906,
2011-02-23, 03:28:04,VALID,999.252,VALID,0,VALID,89.1063,VALID,0.112286,VALID,23.914,VALID,50,VALID,0.269141,
2011-02-23, 03:29:04,VALID,999.24,VALID,0,VALID,89.0606,VALID,0.112286,VALID,23.9549,VALID,50,VALID,0.225391,
2011-02-23, 03:30:04,VALID,999.231,VALID,0,VALID,89.0377,VALID,0.112286,VALID,23.9744,VALID,50,VALID,0.328906,
2011-02-23, 03:31:04,VALID,999.245,VALID,0,VALID,89.03,VALID,0,VALID,23.9336,VALID,50,VALID,0.521094,
2011-02-23, 03:32:04,VALID,999.228,VALID,0,VALID,89.0377,VALID,0,VALID,23.9531,VALID,50,VALID,0.649609,
2011-02-23, 03:33:04,VALID,999.216,VALID,0,VALID,89.0682,VALID,0,VALID,23.9336,VALID,50,VALID,0.519531,
2011-02-23, 03:34:04,VALID,999.214,VALID,0,VALID,89.0682,VALID,0.112286,VALID,23.9549,VALID,50,VALID,0.382422,
2011-02-23, 03:35:04,VALID,999.205,VALID,0,VALID,89.114,VALID,0,VALID,23.9531,VALID,50,VALID,0.294531,
2011-02-23, 03:36:04,VALID,999.166,VALID,0,VALID,89.1674,VALID,0,VALID,23.9336,VALID,50,VALID,0.23125,
2011-02-23, 03:37:04,VALID,999.182,VALID,0,VALID,89.236,VALID,0.112286,VALID,23.9336,VALID,50,VALID,0.075,
2011-02-23, 03:38:04,VALID,999.185,VALID,0,VALID,89.2971,VALID,0,VALID,23.914,VALID,50,VALID,0.216797,
2011-02-23, 03:39:04,VALID,999.202,VALID,0,VALID,89.381,VALID,0.112286,VALID,23.8945,VALID,50,VALID,0.053125,
2011-02-23, 03:40:04,VALID,999.206,VALID,0,VALID,89.4573,VALID,0,VALID,23.875,VALID,50,VALID,0,
2011-02-23, 03:41:04,VALID,999.198,VALID,0,VALID,89.5031,VALID,0,VALID,23.8963,VALID,50,VALID,0.188672,
2011-02-23, 03:42:04,VALID,999.147,VALID,0,VALID,89.5946,VALID,0,VALID,23.8963,VALID,50,VALID,0.520703,
2011-02-23, 03:43:04,VALID,999.162,VALID,0,VALID,89.5794,VALID,0,VALID,23.8768,VALID,50,VALID,0.683984,
2011-02-23, 03:44:04,VALID,999.151,VALID,0,VALID,89.587,VALID,0,VALID,23.8963,VALID,37,VALID,0.693359,
2011-02-23, 03:45:04,VALID,999.144,VALID,0,VALID,89.526,VALID,0,VALID,23.8963,VALID,37,VALID,0.669922,
2011-02-23, 03:46:04,VALID,999.164,VALID,0,VALID,89.4726,VALID,0,VALID,23.8768,VALID,37,VALID,0.49375,